Stephenville, TX

1:34 PM CST on February 09, 2016 (GMT -0600)
Clark Municipal

Weather History for KSEP - January, 2014

Change the Weather History Date:

Saturday, January 4, 2014

  Actual Average Record
Temperature  
Mean Temperature 54 °F -  
Max Temperature 70 °F 54 °F 73 °F (1927)
Min Temperature 37 °F 30 °F 2 °F (1947)
Degree Days  
Heating Degree Days 12    
Growing Degree Days 4 (Base 50)    
Moisture  
Dew Point 39 °F    
Average Humidity 63    
Maximum Humidity 93    
Minimum Humidity 37    
Precipitation  
Precipitation 0.00 in - - ()
Sea Level Pressure  
Sea Level Pressure 29.87 in    
Wind  
Wind Speed 11 mph (SSW)    
Max Wind Speed 20 mph    
Max Gust Speed 28 mph    
Visibility 10 miles    
Events      
Averages and records for this station are not official NWS values.
T = Trace of Precipitation, MM = Missing Value Source: NWS Daily Summary

Daily Weather History Graph

Daily Weather History Graph

Search for Another Location

Airport or City:

Trip Planner

Search our weather history database for the weather conditions in past years. The results will help you decide how hot, cold, wet, or windy it might be!

Date:

Astronomy

Jan. 04, 2014 Rise Set
Actual Time 7:34 AM CST 5:41 PM CST
Civil Twilight 7:07 AM CST 6:08 PM CST
Nautical Twilight 6:37 AM CST 6:38 PM CST
Astronomical Twilight 6:07 AM CST 7:08 PM CST
Moon 9:54 AM CST (1/4) 9:46 PM CST (1/4)
Length of Visible Light 11h 00m
Length of Day
10h 06m
Waxing Crescent, 15% of the Moon is Illuminated
Jan 4
Waxing Crescent
Jan 7
First Quarter
Jan 15
Full
Jan 23
Last Quarter
Jan 30
New

Hourly Weather History & Observations

Time (CST) Temp. Windchill Dew Point Humidity Pressure Visibility Wind Dir Wind Speed Gust Speed Precip Events Conditions
12:15 AM 43.2 °F 35.9 °F 27.0 °F 53% 30.00 in 10.0 mi South 15.0 mph 23.0 mph N/A   Clear
12:35 AM 42.8 °F 37.0 °F 27.1 °F 54% 30.00 in 10.0 mi SSW 10.4 mph 17.3 mph N/A   Clear
12:55 AM 41.9 °F 36.3 °F 27.1 °F 56% 30.00 in 10.0 mi SSW 9.2 mph - N/A   Clear
1:15 AM 41.2 °F 35.0 °F 27.3 °F 58% 30.00 in 10.0 mi SSW 10.4 mph - N/A   Clear
1:35 AM 40.8 °F 34.5 °F 27.5 °F 59% 30.00 in 10.0 mi SSW 10.4 mph - N/A   Clear
1:55 AM 40.1 °F 33.2 °F 28.2 °F 63% 30.00 in 10.0 mi South 11.5 mph - N/A   Clear
2:15 AM 39.9 °F 32.9 °F 28.9 °F 65% 29.99 in 10.0 mi South 11.5 mph 17.3 mph N/A   Clear
2:35 AM 39.6 °F 33.0 °F 30.2 °F 69% 29.99 in 10.0 mi South 10.4 mph 16.1 mph N/A   Clear
2:55 AM 39.2 °F 31.6 °F 30.7 °F 72% 29.98 in 10.0 mi South 12.7 mph - N/A   Clear
3:15 AM 38.8 °F 31.6 °F 31.8 °F 76% 29.97 in 10.0 mi South 11.5 mph 16.1 mph N/A   Clear
3:35 AM 38.5 °F 31.6 °F 32.0 °F 78% 29.97 in 10.0 mi South 10.4 mph - N/A   Clear
3:55 AM 38.3 °F 30.9 °F 32.9 °F 81% 29.97 in 10.0 mi South 11.5 mph 17.3 mph N/A   Clear
4:15 AM 38.3 °F 30.9 °F 33.3 °F 82% 29.96 in 10.0 mi South 11.5 mph - N/A   Clear
4:35 AM 38.3 °F 32.5 °F 33.8 °F 84% 29.96 in 10.0 mi South 8.1 mph - N/A   Clear
4:55 AM 37.9 °F 33.5 °F 34.0 °F 86% 29.95 in 10.0 mi South 5.8 mph - N/A   Clear
5:15 AM 37.8 °F 34.2 °F 34.5 °F 88% 29.96 in 10.0 mi South 4.6 mph - N/A   Clear
5:35 AM 37.9 °F 34.4 °F 34.9 °F 89% 29.95 in 10.0 mi South 4.6 mph - N/A   Clear
5:55 AM 37.9 °F 34.4 °F 35.2 °F 90% 29.95 in 10.0 mi South 4.6 mph - N/A   Scattered Clouds
6:15 AM 37.6 °F - 35.1 °F 91% 29.95 in 10.0 mi Calm Calm - N/A   Scattered Clouds
6:35 AM 37.4 °F 32.1 °F 35.2 °F 92% 29.94 in 10.0 mi South 6.9 mph - N/A   Scattered Clouds
6:55 AM 37.4 °F 33.8 °F 35.4 °F 93% 29.94 in 10.0 mi South 4.6 mph - N/A   Scattered Clouds
7:15 AM 37.6 °F 33.1 °F 35.6 °F 93% 29.94 in 7.0 mi South 5.8 mph - N/A   Mostly Cloudy
7:35 AM 37.4 °F 32.8 °F 35.2 °F 92% 29.94 in 5.0 mi South 5.8 mph - N/A   Mostly Cloudy
7:55 AM 37.6 °F 33.1 °F 35.8 °F 93% 29.93 in 5.0 mi South 5.8 mph - N/A   Scattered Clouds
8:15 AM 38.3 °F 33.2 °F 36.5 °F 93% 29.93 in 7.0 mi South 6.9 mph - N/A   Scattered Clouds
8:35 AM 39.2 °F 35.0 °F 37.4 °F 93% 29.93 in 10.0 mi South 5.8 mph - N/A   Mostly Cloudy
8:55 AM 41.5 °F 36.4 °F 39.6 °F 93% 29.93 in 10.0 mi South 8.1 mph - N/A   Scattered Clouds
9:15 AM 45.1 °F 40.3 °F 42.4 °F 90% 29.93 in 10.0 mi SSW 9.2 mph - N/A   Clear
9:35 AM 48.6 °F - 43.0 °F 81% 29.92 in 10.0 mi SSW 13.8 mph 21.9 mph N/A   Clear
9:55 AM 51.3 °F - 43.3 °F 74% 29.93 in 10.0 mi SSW 16.1 mph 23.0 mph N/A   Clear
10:15 AM 53.6 °F - 43.7 °F 69% 29.92 in 10.0 mi SSW 17.3 mph 25.3 mph N/A   Clear
10:35 AM 54.9 °F - 43.3 °F 65% 29.93 in 10.0 mi SSW 19.6 mph 27.6 mph N/A   Clear
10:55 AM 56.8 °F - 43.3 °F 61% 29.92 in 10.0 mi SSW 18.4 mph 24.2 mph N/A   Clear
11:15 AM 58.6 °F - 43.7 °F 58% 29.91 in 10.0 mi SSW 16.1 mph 23.0 mph N/A   Clear
11:35 AM 59.5 °F - 43.5 °F 55% 29.90 in 10.0 mi SSW 15.0 mph 19.6 mph N/A   Clear
11:55 AM 61.0 °F - 43.3 °F 52% 29.88 in 10.0 mi SSW 16.1 mph 21.9 mph N/A   Clear
12:15 PM 62.6 °F - 43.3 °F 49% 29.87 in 10.0 mi SSW 15.0 mph 19.6 mph N/A   Clear
12:35 PM 63.5 °F - 42.6 °F 47% 29.85 in 10.0 mi SSW 16.1 mph 20.7 mph N/A   Clear
12:55 PM 65.3 °F - 42.6 °F 44% 29.83 in 10.0 mi SSW 13.8 mph 19.6 mph N/A   Clear
1:15 PM 65.8 °F - 42.3 °F 42% 29.82 in 10.0 mi SSW 15.0 mph 25.3 mph N/A   Clear
1:35 PM 66.9 °F - 42.1 °F 40% 29.81 in 10.0 mi South 16.1 mph 25.3 mph N/A   Clear
1:55 PM 68.0 °F - 42.6 °F 40% 29.80 in 10.0 mi SSW 11.5 mph 20.7 mph N/A   Clear
2:15 PM 68.2 °F - 42.3 °F 39% 29.78 in 10.0 mi South 16.1 mph 23.0 mph N/A   Clear
2:35 PM 68.9 °F - 42.6 °F 39% 29.77 in 10.0 mi South 17.3 mph 23.0 mph N/A   Clear
2:55 PM 70.0 °F - 42.3 °F 37% 29.76 in 10.0 mi SSW 17.3 mph 21.9 mph N/A   Clear
3:15 PM 69.8 °F - 42.3 °F 37% 29.77 in 10.0 mi SSW 15.0 mph 21.9 mph N/A   Clear
3:35 PM 69.6 °F - 41.9 °F 37% 29.77 in 10.0 mi SSW 15.0 mph 18.4 mph N/A   Clear
3:55 PM 68.9 °F - 42.3 °F 38% 29.77 in 10.0 mi SSW 11.5 mph 17.3 mph N/A   Clear
4:15 PM 68.9 °F - 42.6 °F 39% 29.77 in 10.0 mi SSW 9.2 mph - N/A   Clear
4:35 PM 68.5 °F - 42.6 °F 39% 29.77 in 10.0 mi SSW 9.2 mph 16.1 mph N/A   Clear
4:55 PM 69.3 °F - 43.2 °F 39% 29.78 in 10.0 mi SSW 8.1 mph - N/A   Clear
5:15 PM 68.0 °F - 43.3 °F 41% 29.78 in 10.0 mi South 8.1 mph - N/A   Clear
5:35 PM 67.1 °F - 43.2 °F 42% 29.77 in 10.0 mi South 9.2 mph - N/A   Clear
5:55 PM 64.6 °F - 43.2 °F 46% 29.77 in 10.0 mi South 4.6 mph - N/A   Clear
6:15 PM 62.8 °F - 43.7 °F 50% 29.77 in 10.0 mi South 4.6 mph - N/A   Clear
6:35 PM 61.3 °F - 43.7 °F 52% 29.77 in 10.0 mi South 4.6 mph - N/A   Clear
6:55 PM 61.9 °F - 43.9 °F 52% 29.77 in 10.0 mi South 8.1 mph - N/A   Clear
7:15 PM 62.4 °F - 43.3 °F 50% 29.78 in 10.0 mi South 9.2 mph - N/A   Clear
7:35 PM 61.9 °F - 43.2 °F 50% 29.78 in 10.0 mi South 8.1 mph - N/A   Clear
7:55 PM 60.8 °F - 43.7 °F 53% 29.77 in 10.0 mi South 8.1 mph - N/A   Clear
8:15 PM 59.9 °F - 44.1 °F 56% 29.78 in 10.0 mi South 5.8 mph - N/A   Clear
8:35 PM 59.0 °F - 44.8 °F 59% 29.78 in 10.0 mi South 5.8 mph - N/A   Clear
8:55 PM 57.7 °F - 45.0 °F 62% 29.78 in 10.0 mi South 5.8 mph - N/A   Clear
9:15 PM 56.8 °F - 45.5 °F 66% 29.77 in 10.0 mi South 8.1 mph - N/A   Clear
9:35 PM 57.2 °F - 45.5 °F 65% 29.77 in 10.0 mi South 9.2 mph - N/A   Clear
9:55 PM 57.6 °F - 45.5 °F 64% 29.77 in 10.0 mi South 11.5 mph 16.1 mph N/A   Clear
10:15 PM 57.4 °F - 45.1 °F 64% 29.76 in 10.0 mi South 8.1 mph - N/A   Clear
10:35 PM 57.7 °F - 44.8 °F 62% 29.80 in 10.0 mi NW 10.4 mph - N/A   Clear
10:55 PM 57.7 °F - 43.9 °F 60% 29.80 in 10.0 mi WSW 5.8 mph - N/A   Clear
11:15 PM 56.1 °F - 42.4 °F 60% 29.80 in 10.0 mi Calm Calm - N/A   Clear
11:35 PM 50.4 °F - 34.7 °F 55% 29.81 in 10.0 mi NW 9.2 mph - N/A   Clear
11:55 PM 48.6 °F - 32.5 °F 54% 29.82 in 10.0 mi NNW 12.7 mph - N/A   Clear